Modesto, CA

9:00 PM PDT on October 13, 2019 (GMT -0700)
Modesto City-County-Sham

Weather History for KMOD - September, 2019

Change the Weather History Date:

Monday, September 16, 2019

  Actual Average Record
Temperature  
Mean Temperature 69 °F -  
Max Temperature 76 °F 89 °F 101 °F (1937)
Min Temperature 61 °F 59 °F 46 °F (1936)
Degree Days  
Heating Degree Days 0 0  
Month to date heating degree days 0 0  
Since 1 July heating degree days 0 0  
Cooling Degree Days 4 9  
Month to date cooling degree days 183 166  
Year to date cooling degree days 1618 1502  
Growing Degree Days 18 (Base 50)    
Moisture  
Dew Point 55 °F    
Average Humidity 61    
Maximum Humidity 84    
Minimum Humidity 38    
Precipitation  
Precipitation 0.12 in 0.01 in 0.68 in (1989)
Month to date precipitation 0.12 0.08  
Year to date precipitation 8.98 8.85  
Snow  
Snow 0.00 in - - ()
Month to date snowfall 0.0  
Since 1 July snowfall 0.0  
Since 1 September snowfall 0.0  
Snow Depth 0.00 in    
Sea Level Pressure  
Sea Level Pressure 29.92 in    
Wind  
Wind Speed 7 mph (NW)    
Max Wind Speed 22 mph    
Max Gust Speed 28 mph    
Visibility 10 miles    
Events Rain    
T = Trace of Precipitation, MM = Missing Value Source: NWS Daily Summary

Daily Weather History Graph

Daily Weather History Graph

Search for Another Location

Airport or City:

Astronomy

Sep. 16, 2019 Rise Set
Actual Time 6:46 AM PDT 7:10 PM PDT
Civil Twilight 6:20 AM PDT 7:36 PM PDT
Nautical Twilight 5:49 AM PDT 8:07 PM PDT
Astronomical Twilight 5:17 AM PDT 8:38 PM PDT
Moon 8:49 PM PDT (9/16) 8:56 AM PDT (9/16)
Length of Visible Light 13h 16m
Length of Day
12h 23m
Waning Gibbous, 94% of the Moon is Illuminated
Sep 16
Waning Gibbous
Sep 21
Last Quarter
Sep 28
New
Oct 5
First Quarter
Oct 13
Full

Hourly Weather History & Observations

Time (PDT) Temp. Dew Point Humidity Pressure Visibility Wind Dir Wind Speed Gust Speed Precip Events Conditions
12:53 AM 66.9 °F 59.0 °F 76% 29.84 in 10.0 mi North 6.9 mph - N/A   Clear
1:53 AM 66.0 °F 57.9 °F 75% 29.84 in 10.0 mi North 5.8 mph - N/A   Clear
2:53 AM 64.0 °F 57.9 °F 80% 29.84 in 10.0 mi NNW 4.6 mph - N/A   Clear
3:53 AM 63.0 °F 57.9 °F 84% 29.85 in 10.0 mi NNE 3.5 mph - N/A   Clear
4:53 AM 63.0 °F 57.9 °F 84% 29.86 in 10.0 mi Calm Calm - N/A   Clear
5:53 AM 62.1 °F 57.9 °F 86% 29.86 in 10.0 mi ESE 4.6 mph - N/A   Clear
6:53 AM 63.0 °F 57.9 °F 84% 29.87 in 10.0 mi Calm Calm - N/A   Clear
7:53 AM 63.0 °F 57.0 °F 81% 29.89 in 10.0 mi SSW 4.6 mph - N/A   Clear
8:53 AM 66.0 °F 57.9 °F 75% 29.89 in 10.0 mi South 5.8 mph - N/A   Partly Cloudy
9:53 AM 70.0 °F 59.0 °F 68% 29.91 in 10.0 mi WNW 6.9 mph - N/A   Mostly Cloudy
10:53 AM 63.0 °F 57.0 °F 81% 29.94 in 10.0 mi NW 19.6 mph - 0.03 in   Overcast
11:07 AM 61.0 °F 57.0 °F 87% 29.94 in 7.0 mi NW 15.0 mph 25.3 mph 0.01 in Rain Rain
11:53 AM 61.0 °F 57.9 °F 90% 29.95 in 7.0 mi NW 9.2 mph - 0.09 in Rain Light Rain
12:53 PM 69.1 °F 57.9 °F 68% 29.95 in 10.0 mi North 9.2 mph - 0.00 in   Scattered Clouds
1:53 PM 75.0 °F 54.0 °F 48% 29.95 in 10.0 mi NW 15.0 mph 19.6 mph N/A   Partly Cloudy
2:53 PM 75.0 °F 50.0 °F 41% 29.95 in 10.0 mi North 9.2 mph 18.4 mph N/A   Scattered Clouds
3:53 PM 72.0 °F 55.0 °F 55% 29.95 in 10.0 mi NE 8.1 mph - N/A   Scattered Clouds
4:53 PM 73.0 °F 53.1 °F 49% 29.94 in 10.0 mi NNE 5.8 mph - N/A   Scattered Clouds
5:53 PM 73.9 °F 48.0 °F 40% 29.94 in 10.0 mi West 8.1 mph - N/A   Partly Cloudy
6:53 PM 73.0 °F 46.9 °F 39% 29.94 in 10.0 mi WNW 10.4 mph - N/A   Partly Cloudy
7:53 PM 68.0 °F 50.0 °F 52% 29.95 in 10.0 mi NW 10.4 mph - N/A   Clear
8:53 PM 66.0 °F 51.1 °F 59% 29.96 in 10.0 mi NW 8.1 mph - N/A   Clear
9:53 PM 64.9 °F 51.1 °F 61% 29.97 in 10.0 mi NW 10.4 mph - N/A   Clear
10:53 PM 63.0 °F 51.1 °F 65% 29.97 in 10.0 mi NW 11.5 mph - N/A   Clear
11:53 PM 63.0 °F 51.1 °F 65% 29.97 in 10.0 mi NW 11.5 mph - N/A   Clear